Wind_Speed
73 73 72 73 73 72 71 68 66 64 63 62 61 60 58 57 55 54 52 50 48 46 45 43 41 40 39 38 37 36 34 32 29 27 25 23 22 20 19 18 17 14 11 10 10 9 8 9 8 9 9 8 7 7 7 7 5 4 2 1 3 4 4 5 6 7 8 11 12 12 12 12 11 11 11 10 11 13 14 16 17 18 19 22 25 27
74 73 73 74 74 73 72 70 68 67 65 63 62 61 60 58 57 55 54 52 50 48 46 44 42 41 40 39 38 37 35 33 31 30 28 26 25 23 22 20 18 16 13 11 11 10 9 9 8 7 8 8 7 6 6 7 7 5 3 1 2 4 4 4 6 7 8 10 12 12 12 12 11 11 11 10 11 12 13 15 17 17 19 22 24 26
74 74 74 74 74 73 73 71 70 68 67 65 64 63 62 60 58 56 55 54 52 50 48 46 45 43 42 41 40 39 37 35 34 32 31 29 27 25 24 22 19 18 15 13 12 11 10 10 9 7 7 7 6 6 5 6 9 7 5 3 3 4 5 5 5 7 8 10 11 11 11 12 11 11 11 10 11 12 13 15 16 17 18 21 23 25
76 76 76 75 75 74 74 73 71 70 69 67 66 65 64 62 60 58 57 55 54 52 50 48 46 45 44 44 43 41 39 38 37 35 33 30 28 27 26 23 20 19 17 15 14 13 12 11 10 8 6 6 6 6 5 6 9 10 8 6 5 4 5 5 5 6 8 9 10 10 11 11 10 10 10 10 10 12 13 14 16 16 18 21 23 24
77 77 77 76 76 75 74 74 72 71 70 69 69 68 67 65 63 61 60 58 56 54 52 50 48 47 46 46 44 43 42 41 39 37 35 32 30 29 27 24 22 21 19 17 16 15 15 13 11 9 7 6 6 6 6 6 8 11 11 9 7 5 4 4 4 5 6 7 8 9 10 10 10 9 9 10 10 11 13 14 15 15 17 20 22 23
78 77 77 76 76 75 74 74 73 71 71 70 70 70 69 67 65 64 62 60 58 56 53 52 51 49 48 47 45 44 44 43 41 39 36 35 33 31 28 25 24 23 21 20 19 18 16 14 12 10 9 8 7 6 6 7 8 11 13 13 11 9 6 4 2 3 4 5 6 7 8 9 10 9 9 10 10 11 13 13 14 15 17 19 21 22
80 79 78 77 76 74 74 73 73 72 71 71 71 72 71 69 67 66 64 62 60 57 55 54 53 52 51 49 47 47 46 45 42 41 39 38 36 34 31 28 26 25 23 22 20 19 18 16 14 12 11 10 9 7 7 7 8 11 13 15 14 13 10 8 5 3 1 2 4 5 6 8 9 9 9 9 10 11 12 13 13 14 16 18 20 22
82 80 78 77 76 75 74 74 74 73 72 72 72 72 72 70 69 67 65 64 61 59 58 57 57 55 54 52 50 49 48 46 45 44 42 40 39 37 35 32 28 27 26 24 22 21 19 18 16 15 14 13 11 9 8 8 9 11 13 15 16 16 14 12 10 8 5 3 2 3 5 7 8 9 9 9 10 11 11 12 12 13 15 17 19 20
84 81 79 78 77 77 76 76 76 74 73 73 73 72 71 71 69 67 66 64 63 61 60 59 59 58 57 55 53 52 50 48 46 44 42 41 39 38 36 34 31 29 27 26 24 22 21 20 19 18 17 15 14 11 10 10 11 12 13 15 17 18 17 16 14 11 8 6 4 3 4 5 7 8 8 8 9 10 10 11 12 13 14 16 18 19
84 82 80 80 80 79 79 78 77 75 75 75 74 72 71 70 69 67 65 65 64 62 61 61 61 60 58 57 56 54 51 49 46 44 42 41 39 38 36 34 32 30 29 28 25 23 23 22 22 21 20 17 15 14 13 12 12 13 13 14 16 18 19 19 17 15 12 9 7 5 4 5 6 7 8 8 8 9 9 9 11 11 13 14 16 18
84 82 82 82 82 81 81 79 78 78 77 76 74 73 72 70 69 68 66 66 65 63 62 62 62 61 59 57 56 55 53 50 48 47 45 44 41 39 36 35 33 31 30 28 27 25 25 25 25 24 22 19 17 16 15 14 14 13 14 15 16 18 19 20 20 17 15 13 11 8 5 4 5 6 7 7 7 7 8 8 9 10 11 13 14 16
84 83 83 84 83 83 82 80 80 80 79 77 75 74 72 71 70 68 67 66 64 63 63 63 63 63 60 58 57 56 54 52 50 49 48 47 45 41 38 36 34 33 31 30 29 28 28 28 28 26 24 21 20 19 18 16 15 14 15 16 17 18 19 21 21 20 18 16 14 11 8 6 5 6 6 7 6 6 6 6 7 8 9 11 12 14
86 84 84 84 85 85 83 82 82 82 80 78 76 75 74 72 70 68 66 64 63 63 64 63 64 65 62 59 58 56 55 53 51 50 50 48 47 44 42 40 38 35 34 32 32 32 32 31 29 27 26 24 23 22 20 18 17 16 16 17 17 18 19 21 21 21 21 19 16 14 12 9 7 6 6 6 6 6 5 4 4 6 7 9 10 12
88 86 85 85 85 86 85 84 84 84 82 80 78 77 76 73 71 68 66 63 62 63 64 63 64 65 63 60 58 56 55 54 53 52 51 50 48 47 45 43 41 39 37 35 34 34 34 33 31 30 29 27 26 24 23 21 20 19 18 18 18 19 20 21 22 22 22 21 19 17 15 13 10 8 7 7 7 6 5 4 3 3 5 6 8 9
90 89 87 86 85 86 86 86 86 85 84 82 80 79 78 75 73 70 68 66 63 63 65 64 64 65 64 61 59 57 56 55 55 54 52 51 50 48 46 45 43 41 40 38 37 36 36 34 32 32 31 30 29 27 25 24 23 22 21 20 19 20 21 22 22 23 23 23 21 20 18 16 14 12 10 9 8 7 5 4 2 2 2 4 6 7
92 91 89 87 86 86 86 87 87 87 86 85 83 81 80 77 75 73 71 69 67 67 67 66 65 65 65 63 61 59 57 55 55 55 53 52 50 49 48 46 45 43 41 40 39 38 36 35 34 33 33 32 32 30 28 27 26 24 23 22 21 22 22 23 24 24 24 24 23 22 20 19 17 15 13 11 10 9 7 5 4 2 1 2 4 5
93 92 91 89 88 87 87 87 88 88 88 86 85 83 82 80 78 76 74 72 71 69 68 67 65 64 65 65 62 59 57 55 55 54 54 52 51 50 49 47 46 44 42 41 41 39 38 36 35 34 34 34 34 33 31 29 28 26 25 24 23 23 23 24 25 25 26 26 25 24 23 21 20 18 16 14 13 11 9 8 6 4 3 1 2 3
95 94 93 91 90 89 88 87 88 88 89 88 86 85 84 82 81 79 77 75 73 71 69 68 65 63 64 64 61 59 57 55 54 54 53 52 51 50 50 49 47 45 44 43 42 41 40 39 36 34 34 35 35 34 33 31 30 29 27 27 26 25 24 24 25 26 27 27 27 26 25 24 22 21 19 18 16 13 11 10 8 7 5 3 2 2
97 96 95 94 92 92 91 89 89 88 89 89 88 87 86 85 83 82 79 77 75 73 71 69 67 65 64 63 62 60 58 55 54 54 53 52 51 51 50 50 48 46 44 43 42 42 41 41 39 36 35 34 34 35 34 33 32 31 30 29 28 27 25 24 26 27 29 29 29 28 27 26 25 23 23 21 19 16 13 11 10 9 7 5 4 2
99 98 97 96 95 94 93 92 91 89 89 89 89 88 87 86 85 84 82 80 78 76 73 71 70 67 65 64 64 62 59 57 54 54 54 53 52 51 51 50 49 47 45 43 42 41 41 40 40 39 37 35 34 35 35 34 34 33 32 32 31 29 28 27 27 28 29 29 29 29 29 28 27 26 25 23 21 17 15 14 12 10 8 7 5 4
101 100 99 97 97 96 95 94 93 91 90 89 89 88 88 87 86 85 84 82 80 78 76 74 72 69 67 67 66 64 61 59 56 55 55 54 53 52 51 51 49 48 46 44 42 41 40 38 38 39 38 36 34 35 36 36 35 34 34 34 32 31 30 30 29 28 28 28 29 29 29 29 29 28 26 24 22 19 18 16 13 12 10 8 7 6
103 102 100 99 98 97 96 95 94 93 92 91 90 89 89 88 87 87 86 84 82 80 79 77 74 71 69 69 69 67 64 61 58 57 56 55 54 53 52 52 50 49 47 45 43 41 39 37 37 37 37 36 35 35 36 36 35 35 36 36 34 33 32 31 30 29 27 27 28 28 28 28 29 29 27 25 23 22 20 18 15 14 12 10 9 8
103 103 102 100 99 98 97 96 95 94 93 92 91 90 89 89 88 87 87 85 84 82 81 80 77 75 73 71 71 70 67 64 61 60 58 57 55 55 54 53 51 50 48 46 43 41 39 38 37 37 37 37 36 36 36 36 36 36 36 36 36 35 34 33 31 29 27 26 27 28 28 28 28 28 27 26 25 24 22 19 17 16 14 12 10 9
101 103 102 101 100 99 98 97 96 95 94 93 93 91 91 90 89 88 87 86 85 84 83 82 80 78 76 74 73 72 70 67 65 63 61 59 58 57 56 54 53 51 49 47 44 42 40 39 38 38 38 39 38 37 36 36 36 35 35 36 37 37 35 34 33 30 28 27 26 27 28 28 28 28 28 27 25 25 23 21 19 17 15 14 12 11
99 101 102 102 101 99 98 97 96 96 95 94 94 93 92 91 90 89 88 87 86 85 84 83 82 80 79 77 76 75 73 71 68 66 64 62 61 60 58 57 54 53 51 48 46 43 41 40 40 40 40 40 39 38 38 36 36 35 35 36 36 37 36 35 34 32 30 28 26 27 28 29 29 29 28 27 25 25 24 22 20 18 17 15 14 12
99 99 101 102 102 101 100 98 97 97 96 95 95 94 94 93 92 91 89 88 87 86 86 85 83 81 81 80 79 78 77 75 72 69 67 65 64 62 61 59 57 55 53 51 48 45 43 42 41 41 40 40 40 40 40 38 37 36 36 36 36 36 37 37 36 34 32 29 27 27 28 29 30 30 29 26 25 24 23 23 21 19 18 16 15 14
100 100 100 101 102 102 102 101 100 99 98 97 97 96 95 95 93 92 92 90 89 88 87 86 83 82 82 82 81 80 80 79 76 73 71 69 67 65 64 62 61 58 56 54 51 48 46 44 43 42 41 40 40 41 41 40 39 37 36 36 35 35 36 37 36 35 33 30 28 28 28 29 30 30 29 26 24 23 23 22 21 20 19 17 16 15
102 101 101 101 101 103 103 103 102 101 100 99 98 98 97 97 95 95 94 93 91 91 89 87 84 83 83 83 82 82 82 82 81 78 75 73 71 69 67 65 63 61 59 57 54 51 49 47 45 43 42 42 41 41 42 42 41 40 39 37 36 35 36 37 37 36 35 32 30 29 29 29 29 30 29 27 25 24 24 23 22 21 20 19 19 17
102 103 103 102 101 102 103 104 104 103 102 101 101 100 100 99 98 97 96 95 94 93 92 89 86 85 84 84 83 83 83 83 83 82 79 76 75 73 70 68 67 65 63 60 57 55 52 50 48 46 45 43 42 42 42 42 42 41 40 39 37 36 36 37 38 37 36 34 33 31 30 28 28 29 29 28 27 26 26 25 24 22 22 21 21 19
101 103 104 103 103 102 103 104 105 105 105 104 103 103 102 101 100 99 98 97 97 96 94 92 89 87 86 85 85 84 84 84 85 85 83 81 78 76 74 72 70 68 66 63 61 58 56 54 51 49 47 46 44 43 42 42 41 41 41 40 39 39 38 38 39 39 38 36 36 34 31 29 28 28 29 30 31 30 29 28 27 25 24 23 22 21
98 101 103 104 104 104 103 104 105 106 107 106 106 105 104 103 103 102 101 100 99 98 97 95 92 90 88 87 86 85 85 84 85 86 85 84 82 80 78 76 74 71 69 67 64 62 60 57 55 53 51 48 46 44 43 42 42 41 41 40 41 41 41 41 41 41 40 39 38 36 33 30 29 29 29 31 32 33 33 32 30 28 26 25 24 23
93 97 101 103 104 105 105 104 104 105 107 108 108 107 106 106 105 104 103 102 101 100 99 98 96 93 91 89 88 87 86 85 85 86 86 86 85 83 81 80 77 75 73 70 68 66 64 61 59 56 54 51 48 46 44 43 43 42 41 41 41 42 42 43 43 43 43 42 40 38 35 33 31 30 30 31 32 33 34 34 33 31 29 27 26 25
87 91 96 100 103 105 106 105 105 105 106 107 108 109 109 108 108 107 106 104 103 102 102 100 98 96 94 92 90 89 88 87 86 86 87 87 87 85 84 82 81 79 77 75 72 69 67 65 62 60 57 54 51 49 47 45 44 43 42 41 41 42 43 44 44 44 44 43 41 39 37 35 34 32 31 31 32 33 33 34 34 33 31 29 27 26
83 86 90 95 99 103 105 106 107 106 106 107 108 109 109 110 110 109 108 107 106 105 104 103 101 99 97 95 93 91 90 89 88 88 88 88 88 87 86 85 84 82 81 78 76 73 71 69 66 63 60 58 55 52 50 48 47 46 45 43 43 43 44 45 46 46 45 44 42 40 39 37 36 34 33 32 32 32 32 33 34 33 32 30 29 29
79 83 86 89 93 98 102 105 107 107 107 108 107 108 109 110 111 111 110 109 109 107 106 105 104 102 101 99 96 94 93 91 90 89 89 89 89 89 88 87 86 85 83 82 80 77 75 72 70 67 64 61 58 56 54 52 50 49 47 46 44 44 44 45 46 47 46 45 43 41 40 39 38 36 34 33 31 31 32 33 34 34 32 30 29 29
75 79 82 85 88 92 96 101 104 107 108 108 108 108 109 110 111 112 112 111 111 110 109 108 106 105 104 102 100 98 96 94 92 91 90 90 91 91 90 89 88 87 86 85 83 80 78 76 73 71 68 65 62 60 57 55 53 51 49 47 45 44 44 44 45 47 47 46 44 42 41 40 39 38 36 34 32 32 33 35 36 35 32 30 28 28
73 75 78 81 84 87 91 94 99 104 107 108 109 110 110 110 110 111 111 112 112 112 112 111 110 108 107 105 104 102 99 98 96 94 92 92 92 92 91 90 89 88 88 87 85 83 81 78 77 74 72 69 66 63 61 58 56 53 51 49 47 45 44 44 44 45 46 46 45 43 42 41 41 39 38 36 34 34 35 36 37 35 32 29 28 27
73 74 75 77 80 83 87 90 93 97 101 106 109 111 111 111 111 111 111 111 111 112 113 113 112 112 110 109 107 105 103 102 100 98 96 94 93 93 93 92 91 90 89 89 88 85 83 81 79 78 75 72 70 67 64 62 59 56 54 52 49 47 46 44 42 41 44 47 47 45 43 42 42 41 40 39 38 37 36 37 37 35 32 29 28 28
71 73 75 76 77 80 83 86 89 92 96 101 105 109 111 112 112 112 111 110 111 112 113 114 114 114 113 112 111 109 107 105 103 102 100 98 96 95 94 94 93 91 91 90 90 88 85 83 82 80 79 76 73 70 68 65 63 60 57 55 52 50 47 42 38 38 43 46 46 45 44 43 43 42 42 42 41 39 37 37 37 34 32 30 30 29
68 71 74 76 78 79 80 82 85 89 92 96 100 103 107 110 113 113 112 111 112 113 113 114 115 115 115 115 114 113 111 108 106 105 104 102 100 98 97 96 95 93 92 92 91 90 88 86 84 83 81 79 77 74 71 68 66 64 61 58 55 53 48 43 42 46 49 49 48 48 47 45 45 44 43 43 42 40 38 37 36 35 33 33 32 30
65 68 71 74 77 79 80 81 83 85 88 91 95 98 101 105 109 111 112 114 114 114 114 114 114 115 115 116 116 115 114 112 110 109 107 105 103 102 100 99 98 96 94 93 93 92 91 89 86 85 84 82 80 78 74 71 69 67 64 61 59 55 51 50 52 55 54 53 52 52 50 48 47 47 46 45 44 42 40 37 36 36 36 35 34 33
62 65 67 70 73 76 78 80 82 84 86 87 89 92 96 99 102 106 110 113 115 116 116 115 115 115 115 116 116 116 116 115 114 113 111 109 107 105 104 102 101 99 97 95 94 94 93 91 89 88 86 85 83 81 78 74 72 70 67 65 62 58 55 55 57 58 57 56 55 54 51 50 50 49 49 48 46 44 42 39 37 37 38 38 37 36
59 62 65 67 70 72 75 77 80 83 85 86 87 89 91 94 97 101 105 109 112 115 117 118 117 116 116 116 116 117 117 117 116 116 115 113 111 109 107 106 105 103 101 99 97 95 94 94 92 90 89 87 86 84 82 78 75 72 71 68 65 62 59 60 61 61 60 61 59 56 54 53 53 53 52 51 49 47 44 41 39 39 40 41 40 38
55 58 61 64 67 70 72 74 77 80 83 85 86 88 89 91 93 96 99 103 107 111 115 118 119 119 119 118 117 117 118 118 118 118 117 116 115 113 111 109 108 107 105 103 100 98 96 95 95 93 91 90 89 87 85 82 78 75 73 71 69 66 64 64 65 64 64 64 63 61 59 58 57 56 54 52 51 49 46 44 42 42 43 43 42 41
50 54 57 60 63 66 69 71 74 76 79 81 83 85 87 89 91 93 96 98 101 105 109 114 117 120 121 120 120 119 119 119 119 119 118 118 117 116 115 113 112 110 109 107 104 102 99 97 97 96 94 93 91 89 87 85 81 78 76 74 72 70 68 68 68 68 67 66 65 64 63 62 61 58 56 55 53 50 48 47 46 46 46 46 46 45
45 49 53 56 60 62 65 67 70 72 75 78 80 81 83 86 89 92 94 95 97 99 102 106 111 115 119 121 121 121 121 120 120 119 119 119 119 118 118 116 115 114 112 110 108 106 103 101 99 98 96 95 94 92 89 87 85 82 79 77 76 74 72 71 72 72 70 68 68 67 65 64 63 61 59 57 54 50 48 48 51 51 50 49 49 49
41 44 48 52 56 58 60 63 65 68 71 74 76 78 80 82 85 88 90 92 94 95 97 99 103 107 112 116 120 121 122 123 122 121 120 119 119 119 119 119 118 117 115 114 112 110 107 104 102 100 99 98 97 95 92 90 88 85 82 80 79 78 76 75 75 75 72 70 70 70 68 67 66 64 61 60 58 53 49 49 53 56 55 53 53 53
39 42 45 49 52 53 56 60 62 63 67 70 72 74 77 79 82 84 85 87 90 92 94 96 98 100 104 108 112 116 120 123 124 123 122 121 120 120 120 120 120 119 118 117 115 113 110 108 106 104 102 100 99 97 95 93 90 89 85 82 81 81 80 78 78 78 75 73 73 73 71 69 69 68 66 65 63 60 55 52 53 57 58 56 56 56
40 41 44 46 48 50 55 58 58 59 64 67 67 70 73 76 78 79 81 82 85 87 89 91 93 96 98 101 104 107 112 118 122 124 124 124 122 121 120 121 121 121 120 119 118 116 114 111 109 107 105 104 102 100 98 96 93 91 89 85 83 83 83 82 81 81 79 77 75 75 74 72 72 72 72 71 69 67 62 57 54 57 59 59 58 58
42 41 42 44 46 49 54 55 53 55 61 63 63 66 69 71 73 74 75 77 79 81 84 86 88 90 93 96 98 101 103 108 113 119 123 125 125 123 122 121 121 121 121 121 120 119 117 114 113 111 109 107 106 102 100 98 96 94 92 89 86 85 85 85 84 84 83 81 78 77 76 75 74 75 76 76 74 71 67 62 59 60 61 61 60 60
43 40 41 43 45 49 53 52 49 52 57 59 59 62 65 67 68 70 71 72 74 76 78 80 82 84 87 90 93 96 98 100 104 109 114 120 124 125 124 123 122 122 122 121 121 120 119 117 116 114 112 111 109 106 103 101 99 97 95 94 90 88 87 88 88 87 86 83 82 80 79 78 77 78 79 79 77 73 70 66 64 64 64 63 62 61
Wind_Direction
217 218 220 222 223 224 224 224 224 224 224 225 226 227 228 228 229 230 230 231 231 231 231 232 233 235 236 237 238 238 238 239 239 238 239 241 243 244 244 248 256 264 269 279 290 299 315 327 336 353 4 6 6 358 323 299 301 312 323 32 73 64 57 65 75 73 67 67 65 60 57 55 54 54 54 50 45 43 44 45 45 46 52 57 59 59
217 217 219 221 223 224 224 224 224 224 225 225 226 227 228 228 229 230 231 231 232 232 232 232 233 234 236 237 239 239 239 239 239 239 239 240 242 245 245 245 251 257 263 271 280 288 299 310 319 335 353 359 358 358 329 289 282 285 279 231 122 96 82 79 83 82 72 66 63 58 51 50 51 49 50 48 43 41 43 44 45 47 53 57 58 59
217 217 218 220 222 223 224 224 225 225 225 225 226 227 228 229 229 230 231 232 232 232 232 232 233 233 235 236 238 238 239 238 238 239 239 240 243 246 247 247 249 254 260 264 269 278 285 292 303 314 335 349 348 349 332 286 270 268 257 227 172 130 111 101 92 85 77 67 61 57 49 45 46 44 44 44 40 38 42 44 45 48 53 57 58 59
218 218 218 219 221 223 224 224 224 225 226 226 227 227 227 228 229 230 230 231 231 232 232 233 233 233 234 235 236 238 238 238 238 238 239 241 242 245 247 248 249 253 256 258 260 266 271 277 290 300 313 330 335 334 328 290 265 259 252 235 208 169 137 120 105 87 77 70 61 54 47 43 42 40 37 40 38 37 39 44 47 50 55 57 58 58
219 219 219 219 220 222 223 224 224 224 225 226 227 227 227 228 229 230 230 230 231 231 231 232 233 233 234 235 236 237 238 238 238 238 239 240 242 244 246 247 249 250 251 253 254 258 263 270 280 291 295 303 315 318 316 297 268 255 251 244 230 208 178 144 117 91 72 64 58 51 42 37 38 36 31 33 35 36 40 43 49 53 56 57 58 58
220 220 220 220 220 221 222 223 224 224 224 226 227 227 227 227 228 229 230 230 231 231 232 233 233 233 234 235 235 236 237 237 238 238 237 238 240 242 244 244 246 249 249 250 252 255 261 266 271 277 279 280 288 297 300 297 277 258 250 246 240 230 217 200 164 106 71 55 47 43 37 30 30 30 26 26 29 36 42 45 51 56 57 57 58 57
220 220 219 219 220 220 222 223 223 223 223 224 226 227 227 227 228 229 230 231 231 231 232 233 234 234 234 234 235 235 236 237 237 236 236 236 238 240 241 241 242 246 248 248 249 253 256 259 262 267 272 273 273 277 282 284 278 264 252 246 244 241 236 231 231 238 288 28 28 30 28 22 22 24 22 21 23 33 44 49 53 58 58 57 57 57
220 220 219 219 220 220 221 222 223 223 223 223 225 226 227 228 228 229 230 231 232 232 233 234 234 234 234 234 234 235 236 236 237 237 238 238 239 240 241 240 240 242 246 247 247 248 250 254 258 263 268 270 269 267 269 270 267 262 254 247 244 244 244 242 243 250 260 276 319 1 12 11 13 17 19 17 17 28 43 52 56 59 59 57 57 56
221 220 219 220 220 220 221 222 223 223 223 224 224 225 227 228 228 229 230 231 232 233 234 235 235 235 236 235 235 236 237 238 240 242 243 244 243 243 243 243 241 241 243 245 244 245 247 250 254 259 263 266 268 265 259 256 256 256 253 248 245 244 245 246 247 250 254 258 267 297 338 355 0 8 14 13 12 20 39 54 60 62 61 59 57 55
221 220 219 220 220 220 221 222 222 223 224 225 225 225 225 226 228 228 229 230 231 232 233 234 235 235 236 237 237 237 238 240 241 243 244 245 246 246 247 247 245 243 244 245 245 244 245 247 251 255 258 262 266 264 256 252 252 253 254 251 246 243 244 245 247 248 248 248 252 265 294 327 347 358 7 10 9 13 31 53 64 65 63 61 60 56
222 220 220 220 221 221 221 221 222 223 224 225 225 225 225 225 226 227 227 228 229 230 232 233 235 235 236 237 238 238 239 239 239 240 241 241 242 243 246 248 250 249 248 248 248 246 245 246 248 251 255 260 263 261 256 253 250 249 251 251 247 245 244 243 245 246 245 245 248 254 269 298 325 344 356 3 5 7 20 46 67 71 67 64 62 59
221 221 220 220 221 221 222 222 222 224 225 225 225 226 225 225 225 226 227 228 229 229 230 232 234 235 235 236 237 238 239 239 239 239 240 241 241 240 240 242 245 247 248 248 248 247 245 245 248 252 256 259 260 258 255 251 249 246 246 248 248 248 247 244 244 244 245 246 248 251 257 271 294 320 339 351 356 358 8 34 63 73 71 67 64 61
221 221 221 221 221 222 222 222 223 224 224 224 225 226 226 225 225 225 226 227 228 229 229 230 233 234 234 235 237 238 239 239 239 240 240 241 242 241 239 238 238 239 240 242 245 246 246 246 249 253 256 257 257 255 251 246 244 241 241 245 249 250 248 247 245 244 245 245 245 248 251 256 269 288 311 331 342 345 351 14 51 70 72 68 64 61
221 221 221 221 221 222 222 222 223 224 224 224 225 226 226 226 225 224 224 225 226 228 228 229 231 233 233 234 235 236 237 238 239 239 240 241 241 242 242 240 239 238 236 236 237 241 244 246 248 251 254 256 256 253 249 243 238 235 234 238 245 247 247 246 245 245 246 245 245 246 249 254 259 269 284 303 320 329 329 343 22 60 69 67 63 59
221 221 221 222 222 222 222 222 223 224 224 224 224 226 226 226 225 224 222 222 223 225 227 228 230 232 232 232 233 234 235 237 238 239 240 241 241 242 243 242 241 241 240 239 237 238 241 244 246 248 251 254 255 253 249 244 238 234 231 231 236 242 244 244 243 243 245 246 247 247 249 251 255 260 268 281 298 308 307 305 327 21 58 63 61 59
221 222 222 222 222 222 222 223 223 224 225 224 224 225 226 226 225 224 223 222 222 224 227 228 230 232 232 232 232 233 234 236 238 239 239 240 241 241 242 242 241 241 241 241 240 239 240 242 243 246 249 252 254 254 251 246 241 238 233 228 229 235 239 240 239 239 242 245 247 248 249 250 251 255 261 269 279 289 291 286 289 301 334 48 56 57
221 222 222 222 222 223 223 223 224 225 225 225 224 225 225 226 225 225 224 224 223 224 227 229 230 231 233 233 232 233 233 234 236 238 238 239 239 240 240 241 241 240 240 240 240 240 239 240 241 244 248 251 253 254 253 249 245 241 236 230 227 229 234 236 236 235 236 239 243 247 249 250 252 254 257 261 266 275 284 283 274 276 282 306 25 45
221 222 222 222 223 223 223 223 224 225 226 226 225 225 225 226 226 225 225 225 224 224 226 227 228 230 232 234 233 233 232 232 234 236 237 238 238 239 239 239 239 239 239 240 240 240 239 238 237 239 244 248 252 254 252 249 245 242 238 231 226 226 231 234 236 234 234 235 238 242 246 248 251 254 254 256 260 266 276 279 270 268 272 275 301 13
221 222 222 222 223 223 223 223 224 224 225 226 226 226 226 226 226 226 225 225 225 225 225 226 227 228 231 233 233 232 231 231 232 234 236 237 237 238 239 239 239 238 238 239 240 241 241 240 238 237 239 242 247 250 249 246 244 241 238 233 228 225 226 231 233 233 233 233 234 237 242 245 248 250 252 254 256 259 265 269 264 262 265 269 281 310
221 221 222 222 223 223 223 224 224 224 225 226 226 226 226 226 226 226 226 226 226 226 225 226 226 227 228 231 233 232 231 230 230 232 234 235 236 237 238 239 239 238 237 237 237 239 240 241 241 239 238 238 240 245 247 244 242 241 240 238 233 228 224 225 229 231 232 232 232 234 237 241 244 247 250 252 254 257 260 263 260 256 257 264 271 282
221 221 222 222 223 223 224 224 224 224 225 226 226 227 227 227 227 227 227 226 226 226 226 226 226 226 227 229 231 231 231 229 228 230 232 234 235 237 237 238 238 238 236 235 235 236 237 239 241 242 241 237 236 239 243 243 241 239 239 239 238 234 228 225 226 229 232 232 233 233 234 236 240 244 248 251 254 256 257 259 257 252 250 254 261 269
221 221 222 222 223 224 224 225 225 225 225 226 226 227 227 227 227 228 227 227 226 226 226 226 226 226 226 228 230 230 230 229 227 228 230 232 233 235 236 237 237 237 236 234 234 234 234 235 237 239 240 236 233 235 239 241 241 239 237 237 238 237 233 229 227 228 231 233 235 235 235 235 238 241 245 248 251 253 254 255 254 249 247 252 259 267
221 222 222 223 223 224 225 225 225 225 226 226 227 227 228 228 228 228 228 228 227 226 226 226 226 225 225 227 229 230 230 229 227 227 228 229 231 233 234 235 236 237 236 235 233 232 231 231 231 233 234 233 231 232 235 239 241 240 239 238 238 238 237 233 230 229 230 232 236 237 236 236 237 240 243 246 248 250 252 253 251 247 246 252 261 268
223 223 223 223 224 225 225 226 226 226 226 227 227 228 229 229 229 228 228 228 228 227 227 226 226 225 225 226 228 231 230 229 228 227 227 228 229 231 233 234 235 236 236 235 233 231 229 228 228 228 229 229 228 229 231 235 239 241 240 238 238 239 240 238 233 230 229 230 234 237 236 234 235 238 241 242 244 247 249 251 249 244 244 250 259 268
224 224 225 225 225 225 226 226 227 227 227 228 228 228 229 230 230 229 229 229 228 228 227 227 226 225 225 225 226 229 231 230 228 227 227 228 228 230 232 233 233 234 235 235 233 232 229 228 227 226 227 228 227 227 227 229 233 237 240 239 239 240 242 241 238 232 229 230 232 236 237 235 234 236 238 239 240 243 246 247 246 242 241 246 253 263
225 225 225 226 226 226 226 227 227 228 228 228 229 229 229 230 230 230 230 230 229 228 228 227 226 225 226 225 225 227 230 230 229 227 227 227 227 229 230 232 233 233 234 234 233 232 230 228 227 227 226 227 228 227 226 224 225 229 234 237 239 239 240 241 240 237 233 231 232 235 238 238 236 236 237 238 238 239 241 242 242 241 241 244 250 257
224 225 225 226 226 226 227 227 227 228 229 229 229 229 230 230 230 231 231 230 230 229 228 228 226 226 226 226 225 226 228 230 230 228 227 227 227 227 229 230 232 232 233 233 233 232 230 229 228 228 227 227 228 229 228 226 223 222 225 230 233 235 236 237 239 239 237 235 234 236 239 241 241 240 239 238 238 238 239 240 240 240 242 245 249 254
224 224 225 225 226 226 227 227 228 228 229 229 229 230 230 230 231 231 231 231 231 230 230 228 227 226 226 226 226 225 227 229 231 229 228 228 228 227 228 229 231 232 232 233 232 231 230 229 229 228 228 228 228 230 231 229 226 222 221 222 225 229 231 232 234 238 240 239 238 238 240 243 245 245 243 240 238 237 238 239 239 241 244 248 251 256
224 224 224 225 225 226 226 227 228 228 229 229 230 230 230 230 231 231 232 232 232 231 231 229 227 227 227 226 226 225 225 227 230 231 229 228 228 228 228 229 230 231 232 232 233 232 231 229 228 228 228 228 228 229 231 231 230 226 223 220 220 222 225 226 229 233 238 240 240 240 241 244 247 247 245 242 239 237 238 239 240 241 244 248 253 258
225 225 225 225 225 225 226 227 227 228 228 229 230 230 230 230 231 231 231 232 232 232 232 230 229 227 227 227 226 225 225 226 228 231 230 229 228 228 228 229 229 231 231 232 232 233 232 231 229 228 228 228 227 227 229 231 231 230 228 224 220 219 221 222 223 227 231 236 238 238 239 242 245 246 244 241 239 238 239 240 241 241 243 247 252 257
226 226 226 226 226 226 226 226 227 228 228 229 229 230 231 231 231 231 232 232 232 233 232 232 230 228 227 227 227 226 225 225 226 229 231 230 229 228 228 228 229 230 231 231 232 233 233 232 231 230 229 228 227 227 227 229 230 231 231 229 226 221 219 220 220 221 224 228 232 234 236 239 242 243 241 239 238 238 240 241 242 242 243 245 249 253
227 227 227 227 226 226 226 227 227 228 228 229 229 230 231 231 231 232 232 232 232 233 233 233 232 230 229 228 227 226 226 225 225 227 229 231 230 229 229 228 228 229 230 231 231 232 233 233 232 231 230 228 227 227 227 227 229 231 231 231 230 227 223 221 220 219 221 223 226 228 231 235 237 239 238 236 236 236 238 242 244 244 243 244 245 248
228 228 228 228 227 227 227 227 227 228 228 229 229 230 230 231 231 232 232 232 232 233 233 233 233 232 230 229 228 228 227 226 225 225 227 229 231 230 230 229 229 229 229 230 230 231 232 233 233 232 231 230 228 226 226 227 228 229 231 231 231 230 226 223 221 220 220 222 223 224 226 229 232 234 234 233 232 233 236 239 242 243 243 242 242 244
228 229 229 229 229 228 228 228 228 228 229 229 229 230 230 231 231 232 232 232 232 233 233 234 233 233 232 231 230 229 228 227 226 225 226 227 229 230 230 230 229 229 229 230 230 230 231 232 233 233 232 230 229 227 226 226 226 227 228 229 229 228 227 225 223 221 220 222 224 224 224 226 229 230 231 230 229 230 232 236 239 241 240 238 238 238
229 229 229 230 230 229 229 228 228 229 229 229 230 230 230 231 231 232 232 232 233 233 233 234 234 234 233 232 231 230 229 228 227 227 226 227 228 229 230 230 230 229 230 230 230 230 230 231 232 233 232 231 230 228 226 225 226 226 226 226 227 227 227 226 225 222 220 221 223 225 225 227 229 230 230 229 228 228 229 232 236 237 237 236 235 234
230 230 230 230 230 230 230 230 229 229 229 229 230 230 230 231 231 232 232 232 233 233 233 233 234 234 234 233 232 231 230 229 228 228 227 227 228 229 229 229 230 230 230 230 230 230 230 230 231 232 232 231 230 229 227 226 225 226 226 226 226 226 226 226 226 224 222 221 223 226 227 228 229 230 231 230 228 227 227 229 232 234 234 233 233 232
231 231 231 231 231 231 231 231 230 230 230 230 230 230 231 231 231 232 232 232 233 233 233 233 234 234 234 234 234 233 231 230 229 228 228 228 228 228 229 229 229 229 230 230 231 231 230 229 230 231 231 231 230 229 228 227 226 225 225 226 225 226 226 225 225 225 223 222 223 226 228 229 229 231 232 231 229 227 226 227 229 231 231 230 229 229
232 232 232 232 232 232 232 232 231 231 231 231 231 231 231 231 232 232 232 232 233 233 233 234 234 234 234 234 234 233 232 231 230 229 228 228 228 228 229 229 229 229 230 230 231 231 231 230 229 230 230 230 230 229 228 227 226 225 225 225 225 225 225 225 224 226 226 225 224 225 228 229 229 230 232 232 232 230 228 228 228 228 228 226 224 224
233 233 233 233 232 232 232 232 232 232 231 231 231 231 231 232 232 232 232 232 232 233 233 233 234 234 234 234 234 234 233 232 231 230 229 228 228 228 229 229 229 229 229 230 231 231 231 230 230 230 230 230 230 229 228 227 226 225 224 224 224 224 223 222 222 225 228 227 225 227 231 233 232 231 232 233 234 233 231 230 229 228 226 224 221 219
234 234 234 234 234 233 233 233 233 233 232 232 231 231 231 232 232 232 232 232 232 232 233 233 234 234 234 234 234 234 234 233 233 232 230 229 228 228 228 229 229 229 228 228 230 231 231 231 230 230 230 230 230 229 228 227 226 225 223 222 223 223 220 216 216 220 224 225 224 225 229 233 234 233 233 234 234 235 234 233 232 230 228 224 220 218
234 234 234 235 235 235 234 234 233 233 233 233 233 232 232 232 232 232 232 233 233 233 233 233 233 234 234 234 234 234 234 233 233 233 232 230 229 228 228 228 229 229 228 227 228 230 231 231 230 230 230 230 230 229 228 227 226 225 223 221 221 221 218 215 215 216 218 221 223 223 225 227 230 231 232 233 233 234 234 233 233 232 230 226 221 218
236 235 235 235 235 236 236 235 235 235 234 234 234 234 233 233 232 232 232 232 233 233 233 233 233 233 233 234 234 234 234 233 233 233 233 232 230 229 228 228 228 229 228 227 227 228 229 231 231 230 229 230 230 230 229 227 225 225 224 221 220 219 218 217 217 216 215 217 220 222 224 227 229 229 230 231 231 232 232 232 232 232 232 230 225 221
237 237 236 236 236 236 236 236 236 236 236 235 234 234 234 234 233 233 232 232 232 233 233 233 233 233 233 233 233 234 234 233 233 233 233 232 232 230 229 228 228 228 228 228 227 227 227 229 230 230 229 229 229 230 229 228 226 224 224 222 219 217 217 218 219 218 216 215 216 217 220 225 229 229 228 228 229 230 231 231 231 231 232 232 228 224
238 238 238 237 237 237 237 237 236 237 237 236 235 235 235 235 234 234 233 233 232 232 233 233 233 233 233 232 232 233 233 233 233 233 232 232 232 231 230 229 228 228 228 228 227 227 226 227 228 229 230 229 229 229 229 229 227 224 223 223 220 217 216 218 220 220 218 217 215 213 214 220 225 227 227 227 228 228 229 229 230 231 232 232 230 226
238 238 238 238 238 238 238 238 237 238 238 238 237 236 236 236 235 235 235 234 233 233 232 233 233 233 233 233 232 232 232 232 233 232 232 232 232 232 231 230 229 228 228 228 227 227 226 226 227 228 229 229 229 229 229 229 228 225 223 222 221 218 216 217 220 221 220 218 217 214 213 217 222 224 225 226 226 226 227 229 230 230 231 231 230 227
239 238 238 238 238 238 239 239 239 239 239 239 239 238 237 237 237 236 236 236 235 234 234 233 233 234 233 233 233 233 233 232 232 232 232 231 231 231 231 230 230 229 228 228 227 226 226 225 226 226 227 228 229 229 229 228 228 226 224 221 221 219 217 216 220 221 220 219 218 217 217 217 219 222 224 223 222 224 228 229 229 229 229 229 229 227
241 240 239 239 239 238 239 239 239 240 240 240 240 239 239 238 238 237 237 237 236 236 235 235 234 234 234 234 233 233 233 233 232 232 232 231 231 231 231 230 230 229 229 228 227 226 225 225 225 225 226 227 228 228 229 228 228 227 225 222 221 220 218 217 219 221 220 219 219 219 219 219 218 219 221 221 219 221 227 230 228 226 226 227 227 227
247 244 242 241 240 239 239 238 238 239 240 241 240 240 240 239 239 238 238 238 237 237 236 236 235 235 234 234 233 233 233 233 232 232 232 232 231 230 231 230 230 229 229 228 228 227 225 225 224 225 225 225 226 227 228 228 228 228 226 223 220 220 219 217 218 221 220 219 219 220 221 221 220 219 219 221 220 219 225 231 228 223 223 226 227 227
252 249 246 245 243 242 241 239 238 239 240 240 240 241 241 241 241 240 239 239 238 238 238 237 236 236 235 235 234 234 233 233 232 232 232 232 231 230 230 230 230 229 229 228 228 227 226 225 224 224 224 225 225 225 226 227 227 228 228 225 221 220 220 219 218 220 220 219 219 220 221 222 222 220 219 221 221 221 226 231 227 222 223 225 226 227
253 251 251 250 248 246 245 242 239 240 241 241 240 241 242 242 242 242 241 240 240 240 239 239 238 236 236 236 235 234 234 233 233 232 232 232 231 230 230 229 230 229 228 228 228 227 226 225 224 223 223 224 224 224 224 225 226 226 227 227 223 221 220 220 219 220 220 219 219 220 221 222 222 221 221 222 222 223 227 229 226 223 224 225 226 227
252 252 252 253 253 252 250 246 243 243 245 243 242 242 243 243 243 243 242 242 241 241 241 240 239 238 237 236 236 235 234 233 233 232 232 231 231 231 230 229 229 229 229 228 227 227 226 225 224 223 223 223 224 224 223 224 225 225 226 227 226 222 221 221 220 220 220 220 219 219 221 221 222 221 222 223 223 224 226 227 226 224 224 225 226 227
Height
10887 10892 10895 10898 10902 10908 10914 10920 10926 10931 10935 10939 10943 10947 10951 10955 10958 10961 10965 10969 10973 10976 10979 10982 10986 10988 10990 10991 10993 10996 10999 11002 11004 11006 11008 11009 11010 11011 11013 11015 11016 11018 11019 11020 11020 11021 11022 11022 11022 11022 11021 11021 11020 11020 11020 11020 11020 11020 11020 11020 11020 11020 11021 11021 11022 11022 11022 11021 11021 11021 11020 11020 11020 11019 11018 11018 11018 11017 11017 11017 11016 11016 11015 11013 11011 11009
10881 10885 10888 10893 10898 10904 10909 10916 10921 10926 10930 10934 10938 10942 10946 10950 10954 10958 10961 10965 10968 10972 10976 10980 10982 10984 10986 10988 10990 10992 10996 10999 11001 11003 11005 11007 11008 11009 11011 11014 11015 11016 11018 11019 11019 11020 11021 11021 11022 11022 11021 11021 11021 11020 11020 11020 11021 11021 11021 11021 11021 11021 11021 11022 11022 11022 11023 11023 11022 11022 11021 11021 11020 11020 11020 11019 11019 11019 11019 11019 11018 11017 11016 11015 11013 11011
10874 10878 10883 10888 10894 10898 10903 10910 10915 10920 10925 10929 10932 10936 10941 10945 10949 10953 10956 10960 10964 10968 10972 10975 10977 10980 10982 10983 10985 10988 10992 10995 10997 10999 11002 11004 11006 11007 11009 11012 11014 11014 11016 11018 11018 11019 11020 11020 11021 11021 11021 11021 11021 11021 11021 11021 11021 11021 11021 11021 11021 11021 11022 11023 11023 11023 11023 11023 11023 11023 11023 11022 11021 11021 11021 11020 11020 11021 11020 11020 11019 11018 11018 11017 11015 11014
10866 10871 10877 10882 10887 10891 10897 10903 10909 10915 10919 10923 10927 10931 10935 10940 10944 10948 10951 10955 10959 10963 10967 10970 10973 10975 10977 10979 10982 10985 10988 10991 10993 10996 10999 11001 11004 11005 11007 11010 11012 11013 11014 11016 11017 11017 11018 11019 11020 11021 11021 11021 11020 11020 11021 11021 11021 11021 11021 11022 11022 11022 11022 11023 11023 11024 11024 11024 11024 11024 11024 11023 11022 11022 11022 11022 11022 11022 11022 11021 11020 11020 11019 11019 11017 11016
10860 10866 10872 10877 10881 10886 10891 10897 10903 10908 10913 10917 10920 10924 10929 10934 10938 10941 10945 10950 10954 10958 10962 10966 10968 10971 10972 10975 10978 10981 10983 10986 10989 10993 10996 10999 11001 11002 11005 11008 11010 11011 11012 11014 11015 11016 11017 11018 11019 11020 11020 11020 11020 11020 11021 11021 11021 11021 11021 11022 11022 11022 11022 11023 11023 11024 11024 11024 11025 11025 11025 11024 11024 11024 11023 11023 11023 11023 11023 11022 11022 11021 11021 11020 11019 11018
10854 10860 10866 10871 10875 10880 10885 10890 10896 10901 10906 10910 10913 10917 10923 10928 10933 10936 10940 10945 10949 10954 10958 10961 10963 10966 10968 10971 10974 10977 10978 10981 10985 10989 10993 10996 10997 11000 11003 11006 11008 11009 11011 11012 11013 11014 11015 11017 11018 11019 11019 11019 11019 11019 11020 11021 11021 11021 11021 11022 11022 11023 11023 11023 11024 11024 11024 11025 11025 11025 11025 11025 11025 11025 11025 11024 11024 11024 11024 11023 11023 11022 11022 11021 11021 11020
10846 10852 10858 10864 10870 10875 10880 10884 10889 10894 10899 10903 10906 10910 10916 10923 10928 10932 10936 10940 10945 10951 10954 10956 10958 10961 10963 10966 10969 10971 10973 10977 10981 10985 10988 10992 10994 10997 11000 11004 11006 11007 11008 11010 11011 11013 11014 11015 11016 11017 11018 11018 11018 11019 11019 11020 11021 11021 11021 11021 11022 11022 11023 11023 11023 11024 11025 11025 11025 11026 11026 11026 11026 11025 11025 11025 11025 11025 11024 11024 11024 11023 11023 11022 11022 11022
10837 10844 10852 10859 10865 10870 10873 10877 10881 10886 10891 10894 10897 10904 10912 10918 10923 10928 10932 10936 10941 10946 10948 10949 10952 10955 10958 10961 10964 10966 10969 10973 10977 10981 10985 10989 10992 10995 10997 11001 11003 11004 11005 11007 11009 11011 11012 11014 11015 11015 11016 11017 11017 11018 11018 11019 11020 11020 11020 11021 11021 11022 11022 11023 11023 11024 11024 11025 11025 11026 11026 11027 11026 11026 11026 11026 11026 11026 11025 11025 11025 11024 11024 11023 11023 11023
10829 10838 10847 10853 10858 10862 10865 10869 10874 10879 10882 10885 10892 10900 10907 10913 10919 10924 10928 10932 10937 10941 10942 10943 10945 10949 10952 10956 10960 10963 10967 10971 10976 10980 10985 10988 10991 10993 10995 10998 11001 11002 11003 11004 11007 11008 11010 11011 11012 11013 11014 11015 11016 11017 11017 11018 11019 11019 11020 11020 11021 11021 11022 11022 11023 11023 11024 11025 11025 11026 11026 11027 11027 11026 11026 11026 11027 11027 11026 11026 11026 11025 11025 11024 11024 11024
10822 10832 10841 10845 10849 10854 10857 10862 10869 10872 10874 10880 10888 10895 10901 10907 10913 10918 10922 10926 10931 10934 10935 10936 10939 10943 10947 10952 10956 10961 10966 10971 10975 10978 10981 10984 10988 10991 10993 10996 10998 11000 11000 11002 11004 11006 11007 11008 11010 11010 11011 11013 11014 11015 11016 11016 11017 11018 11019 11019 11020 11021 11021 11022 11022 11023 11024 11024 11025 11025 11026 11026 11027 11027 11027 11027 11027 11027 11027 11027 11027 11026 11026 11025 11025 11024
10815 10825 10832 10836 10841 10846 10851 10857 10863 10864 10868 10876 10882 10888 10895 10901 10906 10910 10915 10919 10924 10928 10928 10930 10933 10937 10943 10947 10951 10957 10962 10967 10970 10972 10975 10978 10982 10987 10990 10993 10996 10998 10999 11000 11002 11004 11005 11005 11006 11007 11009 11011 11012 11013 11014 11014 11015 11017 11017 11018 11019 11019 11020 11021 11021 11022 11023 11023 11024 11024 11025 11026 11026 11027 11027 11027 11027 11028 11028 11028 11027 11027 11027 11026 11026 11025
10807 10816 10822 10828 10833 10838 10844 10852 10855 10857 10863 10871 10876 10881 10888 10894 10900 10905 10909 10914 10919 10921 10922 10924 10927 10932 10938 10943 10947 10952 10956 10961 10964 10966 10969 10972 10976 10981 10985 10988 10991 10994 10997 10999 10999 11001 11002 11002 11003 11005 11007 11008 11010 11011 11012 11013 11014 11015 11016 11017 11017 11018 11019 11020 11021 11021 11022 11022 11023 11024 11024 11025 11026 11026 11027 11027 11027 11028 11028 11029 11028 11028 11027 11027 11026 11026
10799 10807 10813 10819 10825 10830 10837 10844 10847 10850 10857 10865 10870 10875 10881 10888 10895 10901 10905 10909 10913 10914 10916 10919 10921 10926 10935 10939 10941 10946 10951 10955 10958 10961 10964 10967 10971 10975 10979 10982 10985 10988 10991 10994 10996 10997 10998 11000 11001 11003 11004 11006 11007 11008 11009 11011 11012 11013 11014 11015 11016 11017 11018 11019 11020 11021 11021 11022 11022 11023 11024 11024 11025 11026 11026 11027 11027 11028 11029 11029 11029 11028 11028 11027 11027 11026
10791 10798 10804 10810 10817 10823 10830 10836 10839 10843 10850 10858 10863 10868 10874 10881 10888 10895 10900 10904 10906 10906 10909 10913 10915 10921 10930 10934 10936 10941 10946 10949 10952 10955 10959 10962 10966 10970 10974 10977 10980 10982 10985 10988 10991 10993 10994 10997 10999 11001 11002 11003 11004 11005 11007 11008 11009 11010 11012 11013 11014 11015 11016 11017 11019 11019 11020 11021 11021 11022 11023 11024 11024 11025 11026 11027 11027 11028 11028 11029 11029 11028 11028 11028 11027 11026
10782 10788 10795 10802 10809 10815 10822 10828 10831 10836 10843 10850 10856 10860 10867 10874 10881 10887 10892 10896 10898 10898 10901 10907 10910 10916 10925 10929 10932 10936 10940 10943 10946 10950 10954 10957 10961 10965 10969 10972 10975 10978 10981 10984 10986 10987 10990 10993 10996 10998 10999 11000 11001 11003 11004 11005 11007 11008 11009 11011 11012 11014 11015 11016 11017 11018 11019 11020 11020 11021 11022 11022 11023 11024 11025 11026 11027 11027 11028 11028 11029 11028 11028 11028 11027 11027
10774 10780 10787 10794 10801 10807 10813 10819 10823 10828 10834 10841 10848 10853 10859 10866 10873 10879 10884 10888 10891 10892 10895 10901 10906 10911 10918 10923 10927 10932 10937 10939 10941 10945 10949 10952 10956 10960 10963 10967 10970 10974 10977 10979 10982 10984 10986 10989 10991 10993 10995 10997 10998 11000 11001 11003 11004 11005 11007 11008 11010 11011 11013 11014 11015 11016 11017 11018 11019 11020 11021 11021 11022 11023 11024 11025 11026 11027 11027 11028 11028 11028 11028 11028 11027 11027
10766 10772 10779 10786 10792 10798 10804 10810 10815 10820 10825 10832 10840 10846 10852 10859 10865 10871 10876 10881 10885 10888 10892 10897 10903 10907 10911 10916 10923 10928 10933 10935 10937 10940 10943 10947 10951 10954 10957 10961 10965 10969 10972 10974 10977 10979 10981 10984 10986 10989 10991 10993 10994 10996 10999 11000 11001 11003 11004 11006 11007 11008 11010 11011 11013 11014 11015 11016 11017 11019 11019 11020 11021 11022 11023 11024 11025 11026 11027 11027 11028 11028 11028 11028 11027 11027
10757 10763 10769 10776 10783 10789 10795 10802 10808 10813 10817 10824 10832 10838 10844 10851 10857 10863 10869 10874 10879 10884 10888 10893 10898 10902 10904 10911 10918 10923 10928 10931 10932 10935 10938 10942 10945 10948 10952 10956 10960 10964 10967 10969 10972 10974 10976 10978 10981 10984 10986 10988 10991 10993 10995 10997 10998 11000 11001 11003 11004 11005 11007 11009 11011 11012 11013 11014 11015 11017 11018 11019 11020 11021 11022 11022 11023 11025 11026 11026 11027 11027 11027 11027 11027 11027
10748 10753 10760 10767 10773 10779 10786 10792 10798 10804 10810 10816 10823 10830 10836 10842 10849 10855 10861 10868 10873 10878 10883 10888 10893 10897 10900 10905 10911 10916 10921 10926 10928 10930 10933 10936 10939 10942 10946 10950 10954 10958 10961 10964 10967 10969 10972 10974 10976 10979 10981 10984 10987 10989 10992 10994 10995 10996 10998 10999 11001 11003 11005 11007 11008 11009 11010 11012 11013 11014 11016 11017 11018 11019 11020 11021 11022 11024 11025 11025 11026 11026 11027 11027 11027 11027
10738 10744 10751 10758 10764 10771 10777 10783 10789 10796 10802 10807 10814 10821 10828 10834 10840 10847 10854 10860 10866 10872 10878 10883 10887 10892 10896 10899 10903 10909 10915 10920 10923 10924 10927 10931 10934 10937 10940 10944 10948 10952 10956 10959 10961 10964 10967 10970 10972 10975 10977 10980 10983 10985 10988 10990 10992 10993 10995 10996 10998 11000 11002 11003 11004 11005 11007 11009 11010 11012 11014 11015 11016 11017 11018 11019 11021 11022 11023 11024 11025 11026 11026 11027 11027 11027
10729 10735 10743 10749 10755 10762 10768 10773 10781 10789 10795 10799 10806 10813 10819 10826 10832 10839 10845 10852 10859 10865 10871 10876 10880 10887 10892 10893 10896 10902 10908 10913 10917 10919 10922 10926 10928 10931 10934 10938 10942 10946 10950 10954 10956 10959 10962 10966 10969 10971 10974 10977 10979 10981 10983 10985 10988 10990 10991 10993 10995 10997 10998 10999 11000 11002 11004 11006 11008 11009 11011 11012 11014 11015 11016 11017 11019 11021 11022 11023 11024 11025 11025 11026 11026 11026
10720 10727 10735 10742 10748 10754 10760 10766 10774 10781 10787 10792 10798 10804 10810 10817 10824 10830 10836 10844 10852 10858 10864 10869 10875 10881 10885 10886 10889 10895 10900 10906 10911 10914 10916 10920 10923 10925 10928 10932 10935 10939 10944 10948 10951 10955 10958 10962 10965 10967 10970 10973 10975 10977 10978 10981 10984 10986 10988 10990 10992 10994 10995 10997 10998 10999 11001 11003 11005 11007 11008 11010 11012 11013 11014 11015 11017 11019 11020 11021 11022 11023 11024 11025 11025 11026
10714 10721 10728 10735 10741 10747 10754 10760 10767 10773 10780 10785 10790 10796 10802 10808 10815 10821 10828 10836 10843 10850 10856 10862 10867 10874 10878 10880 10883 10887 10893 10899 10905 10908 10911 10914 10917 10919 10922 10926 10929 10933 10937 10942 10946 10950 10954 10957 10960 10962 10964 10967 10970 10972 10974 10977 10979 10982 10985 10987 10989 10990 10992 10994 10996 10997 10999 11001 11002 11004 11006 11008 11009 11010 11011 11013 11015 11016 11017 11019 11020 11022 11023 11024 11024 11025
10709 10716 10722 10729 10735 10741 10748 10754 10759 10766 10773 10778 10783 10789 10794 10799 10806 10813 10819 10827 10833 10840 10847 10853 10859 10866 10872 10875 10877 10880 10886 10892 10897 10901 10905 10908 10911 10913 10916 10920 10923 10927 10931 10936 10941 10945 10949 10951 10954 10956 10958 10961 10964 10967 10969 10972 10975 10979 10982 10984 10986 10988 10990 10992 10994 10996 10997 10998 11000 11002 11004 11005 11006 11007 11008 11010 11012 11014 11015 11017 11019 11020 11021 11022 11022 11023
10703 10709 10715 10722 10729 10735 10741 10747 10752 10758 10765 10770 10775 10781 10785 10791 10797 10804 10810 10817 10824 10832 10838 10843 10851 10859 10864 10868 10872 10873 10877 10883 10890 10894 10898 10902 10905 10907 10910 10914 10917 10921 10925 10930 10935 10939 10943 10946 10948 10950 10953 10955 10958 10961 10963 10967 10970 10974 10978 10981 10983 10986 10988 10990 10992 10994 10995 10996 10998 10999 11001 11002 11004 11004 11006 11007 11009 11011 11013 11015 11016 11018 11020 11020 11021 11022
10694 10700 10707 10714 10721 10728 10734 10739 10745 10750 10755 10761 10766 10772 10777 10782 10788 10794 10800 10807 10814 10821 10827 10832 10842 10851 10855 10860 10865 10867 10869 10874 10880 10886 10891 10895 10899 10902 10904 10908 10911 10915 10919 10924 10929 10933 10937 10940 10942 10945 10948 10951 10954 10956 10958 10961 10964 10968 10972 10976 10980 10984 10986 10988 10990 10991 10993 10994 10996 10997 10998 10999 11001 11002 11003 11005 11007 11009 11011 11013 11014 11016 11018 11018 11019 11020
10682 10689 10696 10703 10710 10718 10724 10730 10735 10740 10745 10751 10757 10762 10768 10773 10779 10784 10790 10796 10804 10810 10815 10823 10835 10843 10846 10851 10857 10861 10863 10865 10871 10878 10883 10887 10892 10895 10898 10901 10905 10909 10913 10918 10923 10927 10931 10934 10937 10940 10943 10946 10949 10952 10954 10957 10959 10962 10965 10969 10974 10979 10983 10985 10987 10988 10990 10993 10994 10995 10996 10997 10998 10999 11002 11004 11006 11007 11009 11010 11012 11014 11015 11016 11017 11018
10669 10676 10684 10691 10699 10706 10713 10719 10725 10730 10736 10741 10747 10752 10758 10763 10769 10774 10779 10786 10793 10798 10804 10815 10826 10833 10836 10842 10848 10854 10857 10858 10861 10868 10875 10880 10884 10889 10892 10895 10900 10904 10907 10912 10917 10921 10925 10928 10931 10934 10937 10941 10945 10947 10950 10953 10955 10958 10960 10963 10967 10972 10976 10980 10983 10985 10987 10989 10992 10993 10994 10995 10996 10997 10999 11002 11004 11006 11007 11008 11009 11011 11013 11014 11015 11016
10658 10665 10672 10680 10687 10694 10701 10707 10713 10719 10725 10730 10735 10741 10747 10753 10758 10764 10769 10775 10781 10786 10794 10805 10816 10822 10827 10832 10839 10845 10850 10852 10854 10858 10866 10872 10876 10881 10886 10889 10893 10897 10901 10906 10910 10915 10919 10922 10926 10929 10932 10935 10939 10942 10945 10949 10952 10954 10956 10958 10961 10965 10969 10973 10977 10980 10982 10985 10987 10989 10991 10993 10994 10995 10997 10999 11001 11003 11004 11005 11007 11009 11010 11011 11012 11014
10648 10655 10662 10669 10676 10682 10689 10695 10702 10708 10713 10719 10724 10730 10736 10742 10748 10753 10759 10765 10770 10776 10784 10794 10804 10812 10817 10822 10829 10835 10840 10845 10847 10849 10855 10862 10868 10873 10878 10882 10886 10890 10895 10900 10904 10908 10913 10916 10920 10923 10926 10929 10933 10937 10941 10944 10947 10950 10953 10954 10956 10959 10962 10966 10970 10974 10976 10979 10981 10983 10987 10990 10991 10993 10994 10996 10998 10999 11001 11003 11005 11007 11008 11009 11010 11012
10638 10645 10652 10659 10666 10672 10678 10684 10690 10696 10701 10708 10713 10719 10725 10731 10737 10743 10749 10755 10760 10767 10774 10781 10791 10801 10807 10812 10818 10825 10831 10837 10841 10843 10846 10852 10859 10865 10870 10875 10879 10883 10888 10893 10898 10902 10906 10910 10914 10917 10920 10924 10928 10932 10935 10938 10941 10945 10948 10951 10953 10955 10957 10960 10963 10966 10969 10972 10974 10977 10981 10984 10987 10989 10990 10992 10994 10996 10998 10999 11002 11004 11006 11007 11008 11010
10629 10634 10641 10647 10655 10661 10667 10674 10679 10684 10690 10696 10703 10708 10714 10720 10726 10731 10738 10745 10751 10757 10763 10769 10779 10790 10797 10802 10808 10815 10821 10827 10833 10837 10839 10843 10849 10856 10861 10866 10871 10876 10880 10886 10890 10895 10899 10903 10908 10911 10915 10919 10922 10926 10930 10932 10936 10939 10942 10946 10948 10950 10953 10955 10957 10960 10963 10965 10968 10972 10975 10978 10981 10983 10986 10987 10989 10991 10993 10995 10998 11000 11002 11004 11006 11007
10620 10625 10630 10636 10643 10650 10657 10663 10668 10674 10680 10685 10691 10697 10702 10708 10713 10720 10727 10734 10741 10746 10752 10758 10768 10778 10786 10791 10798 10805 10811 10817 10824 10829 10832 10835 10839 10846 10852 10858 10863 10867 10872 10878 10883 10888 10892 10896 10901 10905 10909 10913 10917 10921 10924 10927 10930 10933 10936 10939 10943 10946 10948 10950 10952 10955 10958 10962 10965 10967 10969 10971 10974 10977 10980 10982 10985 10987 10989 10991 10993 10995 10998 11000 11002 11004
10611 10616 10620 10626 10632 10639 10645 10651 10657 10663 10669 10674 10680 10686 10691 10696 10702 10708 10716 10723 10730 10736 10741 10748 10757 10765 10772 10780 10788 10794 10800 10807 10814 10819 10824 10827 10831 10836 10842 10849 10854 10859 10864 10869 10875 10880 10884 10889 10893 10898 10903 10907 10911 10915 10918 10921 10924 10927 10930 10933 10937 10940 10943 10945 10947 10950 10954 10958 10961 10963 10965 10967 10969 10972 10975 10978 10980 10983 10986 10987 10989 10991 10993 10995 10997 10999
10601 10606 10610 10615 10621 10627 10633 10640 10646 10652 10657 10662 10669 10675 10680 10685 10690 10697 10705 10711 10718 10725 10731 10737 10745 10752 10760 10767 10776 10783 10790 10797 10804 10809 10814 10819 10822 10826 10832 10838 10844 10850 10855 10860 10866 10871 10877 10881 10886 10891 10896 10900 10904 10908 10912 10915 10918 10921 10924 10927 10931 10934 10938 10940 10943 10946 10949 10953 10957 10960 10962 10964 10966 10968 10971 10974 10977 10980 10982 10983 10985 10986 10989 10991 10993 10994
10593 10597 10601 10606 10610 10616 10622 10628 10634 10639 10645 10651 10658 10663 10668 10673 10679 10685 10692 10699 10706 10713 10720 10726 10733 10740 10747 10754 10762 10771 10779 10786 10793 10799 10804 10810 10814 10818 10823 10828 10834 10840 10846 10850 10856 10862 10868 10874 10878 10883 10888 10893 10897 10901 10905 10908 10912 10915 10919 10922 10925 10929 10932 10936 10938 10941 10945 10948 10953 10956 10959 10960 10962 10964 10967 10970 10973 10975 10977 10979 10980 10982 10985 10987 10990 10991
10584 10588 10592 10596 10601 10605 10610 10615 10621 10627 10634 10640 10645 10650 10656 10661 10667 10673 10680 10687 10695 10701 10707 10714 10721 10727 10734 10741 10748 10757 10766 10774 10781 10788 10794 10799 10805 10809 10814 10820 10825 10830 10836 10841 10846 10852 10859 10865 10870 10875 10880 10885 10890 10894 10899 10902 10905 10910 10914 10917 10920 10923 10927 10930 10934 10937 10940 10943 10947 10950 10953 10956 10958 10960 10963 10966 10969 10971 10972 10974 10976 10978 10981 10984 10986 10988
10576 10579 10583 10587 10591 10595 10599 10604 10609 10615 10621 10626 10631 10637 10643 10649 10655 10661 10668 10676 10683 10689 10695 10701 10707 10713 10720 10728 10734 10742 10751 10759 10767 10775 10782 10788 10795 10801 10805 10810 10817 10822 10826 10831 10836 10843 10850 10856 10861 10866 10871 10876 10881 10887 10891 10895 10899 10904 10907 10911 10915 10918 10921 10925 10930 10934 10936 10938 10941 10945 10948 10951 10953 10956 10959 10962 10964 10966 10968 10970 10972 10975 10977 10980 10982 10984
10567 10570 10573 10577 10581 10584 10588 10592 10597 10602 10607 10612 10617 10624 10630 10637 10642 10648 10655 10664 10670 10675 10680 10686 10692 10699 10706 10714 10721 10728 10736 10745 10754 10762 10770 10777 10783 10790 10795 10800 10806 10813 10818 10822 10826 10832 10839 10846 10852 10857 10862 10868 10873 10878 10883 10887 10892 10897 10901 10905 10908 10912 10916 10922 10928 10931 10931 10933 10938 10942 10945 10947 10950 10952 10955 10957 10959 10962 10965 10967 10969 10972 10975 10977 10979 10981
10558 10561 10564 10567 10570 10573 10577 10582 10586 10590 10594 10598 10604 10610 10617 10623 10628 10635 10643 10650 10654 10659 10665 10671 10678 10685 10692 10699 10707 10714 10722 10731 10740 10747 10755 10764 10771 10778 10783 10789 10794 10801 10808 10813 10817 10822 10828 10836 10842 10848 10853 10858 10864 10869 10874 10879 10884 10889 10894 10898 10902 10906 10911 10916 10920 10921 10921 10925 10931 10935 10937 10941 10945 10948 10950 10953 10955 10958 10961 10964 10967 10970 10972 10974 10975 10978
10549 10551 10554 10556 10559 10563 10567 10571 10575 10578 10582 10586 10592 10598 10604 10610 10615 10622 10629 10634 10638 10644 10652 10659 10665 10671 10678 10685 10693 10700 10708 10717 10725 10732 10739 10749 10757 10765 10771 10777 10782 10789 10797 10803 10808 10812 10818 10824 10831 10838 10843 10849 10854 10860 10865 10871 10876 10882 10887 10891 10895 10900 10905 10908 10908 10909 10912 10917 10923 10926 10929 10934 10938 10941 10945 10947 10950 10953 10957 10960 10964 10966 10969 10970 10972 10975
10540 10542 10544 10547 10550 10553 10556 10560 10564 10567 10570 10576 10581 10585 10590 10596 10602 10608 10613 10619 10625 10630 10637 10643 10650 10657 10664 10671 10678 10686 10693 10702 10710 10716 10723 10732 10742 10751 10758 10765 10771 10777 10784 10791 10798 10803 10808 10813 10820 10826 10833 10838 10844 10850 10856 10862 10868 10873 10878 10883 10887 10893 10897 10899 10900 10902 10905 10909 10914 10920 10926 10930 10933 10935 10938 10941 10944 10948 10951 10955 10959 10962 10964 10967 10969 10971
10531 10533 10535 10538 10540 10543 10546 10549 10553 10555 10558 10564 10569 10573 10577 10583 10588 10593 10598 10604 10610 10615 10620 10627 10635 10642 10649 10656 10663 10670 10677 10684 10693 10700 10708 10716 10726 10735 10743 10751 10758 10764 10771 10779 10786 10793 10799 10804 10809 10815 10821 10827 10833 10840 10846 10852 10859 10864 10869 10874 10880 10885 10888 10891 10893 10896 10899 10901 10906 10913 10920 10925 10927 10929 10932 10934 10937 10941 10945 10949 10953 10956 10959 10962 10965 10967
10523 10524 10526 10528 10531 10533 10535 10538 10542 10544 10546 10551 10557 10561 10566 10570 10575 10579 10583 10588 10594 10600 10605 10611 10617 10625 10632 10640 10646 10653 10660 10666 10674 10683 10691 10700 10708 10718 10727 10736 10743 10750 10758 10765 10773 10781 10788 10794 10798 10804 10810 10816 10822 10829 10835 10842 10849 10855 10860 10865 10871 10876 10880 10882 10885 10890 10893 10895 10899 10904 10910 10915 10919 10922 10925 10928 10931 10933 10937 10942 10946 10950 10954 10957 10960 10962
10515 10516 10517 10519 10521 10523 10525 10528 10531 10534 10535 10539 10544 10549 10554 10558 10562 10565 10569 10573 10579 10585 10590 10595 10601 10608 10616 10623 10631 10637 10643 10650 10657 10666 10675 10684 10692 10700 10710 10719 10727 10735 10743 10751 10759 10768 10776 10782 10788 10793 10799 10805 10811 10818 10824 10832 10839 10846 10851 10856 10862 10867 10870 10873 10876 10880 10885 10890 10893 10897 10902 10906 10910 10914 10918 10921 10924 10925 10927 10932 10939 10944 10947 10950 10954 10957
10508 10508 10509 10511 10512 10513 10515 10518 10521 10524 10525 10528 10532 10537 10541 10545 10548 10551 10556 10561 10566 10571 10577 10582 10587 10593 10599 10607 10615 10622 10628 10634 10642 10649 10658 10668 10676 10684 10692 10702 10711 10719 10728 10736 10744 10753 10762 10770 10776 10782 10789 10794 10800 10807 10814 10821 10828 10835 10841 10847 10852 10857 10861 10865 10867 10871 10877 10883 10887 10891 10895 10899 10903 10907 10910 10914 10917 10917 10917 10922 10930 10936 10940 10944 10948 10951
10499 10500 10501 10501 10502 10504 10507 10509 10511 10514 10515 10517 10520 10525 10529 10532 10535 10539 10543 10548 10553 10558 10563 10568 10573 10578 10583 10590 10598 10606 10612 10619 10626 10634 10641 10651 10660 10668 10675 10684 10694 10702 10711 10720 10729 10738 10748 10757 10764 10771 10777 10783 10789 10796 10803 10810 10817 10824 10831 10838 10843 10848 10852 10857 10859 10863 10868 10875 10879 10884 10889 10893 10897 10901 10903 10906 10909 10909 10909 10915 10922 10927 10932 10937 10940 10943
10491 10492 10492 10492 10494 10496 10498 10498 10502 10504 10504 10506 10510 10514 10516 10518 10522 10526 10531 10535 10540 10544 10548 10553 10559 10563 10568 10574 10581 10589 10596 10602 10609 10617 10625 10634 10644 10652 10659 10667 10676 10685 10695 10704 10713 10722 10733 10743 10750 10758 10765 10771 10777 10785 10792 10799 10806 10812 10820 10828 10834 10838 10843 10847 10851 10855 10860 10867 10871 10876 10881 10886 10890 10894 10896 10898 10901 10902 10904 10909 10915 10920 10924 10929 10933 10936
10483 10484 10484 10485 10486 10487 10486 10488 10493 10495 10494 10496 10500 10503 10504 10506 10510 10514 10519 10523 10527 10531 10535 10539 10545 10550 10555 10560 10566 10573 10579 10585 10592 10600 10608 10616 10626 10635 10643 10650 10658 10668 10678 10687 10696 10706 10718 10728 10736 10744 10751 10758 10765 10773 10780 10788 10795 10801 10808 10816 10824 10829 10833 10838 10842 10846 10851 10857 10862 10867 10872 10877 10882 10886 10888 10890 10893 10896 10899 10903 10909 10913 10918 10922 10925 10929
10475 10477 10477 10478 10479 10478 10476 10480 10486 10487 10484 10487 10491 10492 10493 10496 10499 10503 10507 10511 10515 10519 10522 10526 10531 10537 10542 10546 10551 10558 10564 10570 10576 10584 10592 10600 10608 10617 10627 10634 10641 10650 10660 10670 10679 10689 10701 10712 10721 10730 10738 10744 10752 10760 10768 10775 10783 10790 10797 10804 10812 10819 10824 10829 10833 10836 10841 10847 10853 10858 10863 10868 10873 10877 10880 10883 10886 10890 10893 10898 10903 10908 10911 10914 10918 10923
10469 10471 10472 10471 10472 10470 10468 10472 10479 10479 10476 10479 10483 10484 10484 10486 10489 10492 10496 10499 10503 10507 10510 10513 10518 10524 10529 10533 10537 10543 10549 10556 10561 10568 10576 10583 10589 10598 10609 10618 10626 10634 10643 10653 10662 10673 10685 10695 10705 10715 10724 10731 10738 10747 10756 10763 10771 10779 10786 10792 10799 10807 10814 10819 10823 10826 10831 10837 10843 10848 10853 10858 10863 10867 10872 10875 10879 10884 10887 10891 10896 10901 10904 10908 10912 10917